Location: Julian California
(33.0790°N, 116.6010°W)
Time: 00:07:43
(UTC-08:00)

SL-8 Rocket - Pass Details

Date: 19 May 2017
Orbit: 959 x 990 km, 82.9° (Epoch: 20 November)

Event Time Altitude Azimuth Distance (km) Brightness Sun altitude
Rises 22:49:24 0° 358° (N) 3,667 7.9 -30.4°
Reaches altitude 10° 22:51:58 10° 3° (N) 2,721 7.0 -30.6°
Enters shadow 22:57:11 54° 47° (NE) 1,177 4.4 -31.2°
